Regional Weather Roundup
Issued by NWS Grand Forks, ND

Home | Current Version | Previous Version | Text Only | Print | Product List | Glossary On
Versions: 1 2 3 4 5 6 7 8 9 10 11 12 13 14 15 16 17 18 19 20 21 22 23 24 25 26 27 28 29 30 31 32 33 34 35 36 37 38 39 40 41 42 43 44 45 46 47 48 49 50
249
ASUS43 KFGF 231631
RWRFGF
PRAIRIE TO PINES  WEATHER ROUNDUP
NATIONAL WEATHER SERVICE EASTERN NORTH DAKOTA/GRAND FORKS ND
1000 AM CST THU FEB 23 2017

 **SATELLITE DATA USED TO AUGMENT SKY COVER AT AUTOMATED STATIONS**
 *****  WEATHER ACROSS EASTERN NORTH DAKOTA  *****

CITY           SKY/WX    TMP DP  RH WIND       PRES   REMARKS
GRAND FORKS    CLOUDY    28  20  71 N16       30.06R WCI  16
GRAND FRKS AFB CLOUDY    27  23  85 N12       30.07R WCI  16
DEVILS LAKE    CLOUDY    27  23  85 N8        30.05R WCI  19
FARGO          CLOUDY    30  23  75 N12       30.03R WCI  20
WAHPETON ARPT  CLOUDY    30  21  69 N18G26    30.01S WCI  18
$$

 ***** WEATHER ACROSS CENTRAL AND WESTERN NORTH DAKOTA  *****

CITY           SKY/WX    TMP DP  RH WIND       PRES   REMARKS
BISMARCK       CLOUDY    31  25  78 NE8       30.03S WCI  23
MINOT          CLOUDY    23  17  78 N16       30.07R WCI  10
JAMESTOWN      CLOUDY    29  25  85 NE6       30.01F WCI  23
MINOT AFB      CLOUDY    21  15  78 NE10      30.07R WCI  10
GARRISON         N/A     26  23  88 NE16      30.02R WCI  14
WILLISTON      CLOUDY    28  24  85 N13       30.06R WCI  17
DICKINSON      LGT SNOW  27  25  92 NE7       29.97S FOG     WCI  19
HETTINGER      PTSUNNY   27  23  85 NE10      29.97S WCI  17
$$

 *****  OTHER AIRPORT OBSERVATIONS IN OUR AREA  *****

CITY           SKY/WX    TMP DP  RH WIND       PRES   REMARKS
WALHALLA       NOT AVBL
GRAFTON AIRPOR CLOUDY    25  23  93 N12       30.10R WCI  14
VALLEY CITY AR CLOUDY    28  28 100 NE7       30.05R WCI  21
CANDO          NOT AVBL
CAVALIER APRT    N/A     25  18  74 N10       30.09S WCI  15
GWINNER        CLOUDY    30  28  93 N15       30.02S WCI  19
ROLLA          CLOUDY    19  18  93 N15       30.04S WCI   5
 ***** THE ABOVE OBSERVATIONS ARE NON NWS ARE NOT QUALITY
       CONTROLLED AND MAY MIS-REPORT RAIN FOR SNOW...
$$

  *****  WEATHER ACROSS NORTHERN MINNESOTA  *****

CITY           SKY/WX    TMP DP  RH WIND       PRES   REMARKS
FLAG ISLAND    CLOUDY    19   9  63 NW20      30.04F WCI   4
WARROAD        CLOUDY    21  12  68 NW10      30.06R WCI  10
ROSEAU         FLURRIES  23  16  74 N12       30.06S WCI  12
HALLOCK        CLOUDY    25  18  74 N17       30.06F WCI  11
THF RVR FALLS    N/A    N/A N/A N/A MISG        N/A
BAUDETTE       CLOUDY    19   9  65 NW15G22   30.03R WCI   5
WASKISH        CLOUDY    23  16  74 N8G17     30.03S WCI  14
CROOKSTON      CLOUDY    28  23  80 N12       30.07R WCI  18
STEPHEN NDAWN    N/A     25  21  86 N14         N/A  WCI  13
GREENBUSH NDAW   N/A     23  18  80 N13         N/A  WCI  11
$$
  *****  WEATHER ACROSS CENTRAL AND WEST MINNESOTA  *****

CITY           SKY/WX    TMP DP  RH WIND       PRES   REMARKS
FOSSTON        CLOUDY    25  21  86 N14       30.03S WCI  13
BEMIDJI        PTSUNNY   24  16  73 N15       30.00S WCI  11
PARK RAPIDS    CLOUDY    25  17  72 N13       29.98R WCI  14
ELBOW LAKE     FAIR      28  22  78 NE13G22   29.98R WCI  17
WADENA         CLOUDY    25  19  80 NE13G18   29.97S WCI  13
DETROIT LAKES  CLOUDY    27  21  80 N14G20    30.00S WCI  15
MOORHEAD       CLOUDY    28  21  74 N20G26    30.04R WCI  15
FERGUS FALLS   CLOUDY    28  21  74 N10G20    30.03R WCI  19
MORRIS MN      FAIR      30  25  80 N15       29.96S WCI  19
STAPLES        CLOUDY    25  19  80 NE10      29.97F WCI  15
$$
  *****  WEATHER ELSEWHERE ACROSS MINNESOTA  *****

CITY           SKY/WX    TMP DP  RH WIND       PRES   REMARKS
DULUTH         CLOUDY    24  21  88 NW9       29.92R WCI  14
INTRNTL FALLS  CLOUDY    21  12  68 NW12      30.00R WCI   9
ELY            FAIR      27  18  69 NW6G20    29.91F WCI  20
CLOQUET        CLOUDY    25  21  86 N10       29.94S WCI  15
WHEATON        PTSUNNY   30  23  74 N14       30.02R WCI  20
BRAINERD       CLOUDY    25  20  81 N8        29.98R WCI  16
HIBBING        CLOUDY    23  20  88 NW16      29.95R WCI  10
ALEXANDRIA     CLOUDY    26  22  84 N12       29.95S WCI  16
SAINT CLOUD    CLOUDY    27  22  81 N9        29.96R WCI  18
MINNEAPOLIS    PTSUNNY   34  25  69 NE9G20    29.93S
$$

  *****  WEATHER ACROSS SOUTH DAKOTA  *****

CITY           SKY/WX    TMP DP  RH WIND       PRES   REMARKS
SIOUX FALLS    CLOUDY    32  26  78 NE16      29.88F WCI  21
BROOKINGS      CLOUDY    29  24  82 NE16G24   29.88  WCI  17
WATERTOWN      PTSUNNY   28  23  81 NE23G29   29.92F WCI  14
HURON          CLOUDY    32  25  75 NE14      29.94S WCI  22
SISSETON         N/A     30  25  81 NE18      29.99R WCI  18
ABERDEEN       FAIR      28  22  78 NE14      30.00R WCI  17
MITCHELL       CLOUDY    32  26  78 NE16      29.92R WCI  21
PIERRE         PTSUNNY   30  23  75 NE13      29.92F WCI  20
MOBRIDGE       CLOUDY    31  23  72 N10       29.96F WCI  22
RAPID CITY     LGT SNOW  25  22  88 NE12      29.88R VSB 3/4 WCI  14
$$

  *****  SOME WEATHER IN NEARBY STATES *****

CITY           SKY/WX    TMP DP  RH WIND       PRES   REMARKS
GLASGOW MT     CLOUDY    29  27  92 N9        30.03R FOG     WCI  20
GREAT FALLS MT CLOUDY    26  23  88 NE13      29.97R WCI  15
CHEYENNE WY    LGT SNOW  25  23  92 E12       29.55R FOG     WCI  14
SCOTTSBLUFF NE SNOW      27  24  89 E9        29.69F VSB 1/4 WCI  18
OMAHA NE       CLOUDY    38  32  79 NE13G22   29.76F
DES MOINES IA  CLOUDY    42  36  79 E12       29.81F
DAVENPORT IA   FAIR      45  39  79 NE9       29.80R
CHICAGO IL     CLOUDY    50  40  68 NE15      29.79S
EAU CLAIRE WI  CLOUDY    37  30  75 N10       29.90S
LA CROSSE WI   CLOUDY    42  31  64 N10       29.88S
$$

  *****  SOME NATIONAL WEATHER *****

CITY           SKY/WX    TMP DP  RH WIND       PRES   REMARKS
LA GUARDIA NY  CLOUDY    55  49  80 SW10      29.89F
RALEIGH NC     FAIR      70  53  54 W6        29.97S
ATLANTA GA     FAIR      65  57  75 E9        29.92S
NEW ORLEANS LA FAIR      71  61  70 E3        29.86R
OKLAHOMA CITY  FAIR      65  45  48 S12       29.54F
ALBUQUERQUE NM FAIR      51  18  27 W26G36    29.70R
SALT LAKE CITY FLURRIES  29  26  89 W9        29.76R WCI  20
LOS ANGELES CA FAIR      51  29  42 N7        30.10R
BOISE ID       CLOUDY    31  25  78 NW21      29.87R WCI  18
SEATTLE WA     MOCLDY    37  34  89 CALM      30.25R
$$

*** WEATHER ACROSS MANITOBA...SASKATCHEWAN AND ONTARIO ***
                ***ONTARIO***

CITY           SKY/WX    TMP DP  RH WIND       PRES   REMARKS
GERALDTON      LGT SNOW  18  12  79 NW12G18   29.83R WCI   5
THUNDER BAY    PTSUNNY   30  18  59 NW14G21   29.88S WCI  20
SIOUX LOOKOUT  FLURRIES  18   9  68 NW14G20   29.92R WCI   4
TORONTO        PTSUNNY   59  52  77 SW20G30   29.61S
BIG TROUT LK   LGT SNOW   0  -8  71 N9        29.90  WCI -16
PICKLE LAKE    FLURRIES   5  -6  61 NW12G21   29.88R WCI -11
DRYDEN         MOSUNNY   18   7  62 W17       29.95S WCI   2
KENORA         MOSUNNY   18   5  57 NW16G28   30.00F WCI   3
$$
                *** MANITOBA***

CITY           SKY/WX    TMP DP  RH WIND       PRES   REMARKS
BRANDON        MOSUNNY   21  12  68 N17       30.08F WCI   7
DAUPHIN        PTSUNNY   19  14  79 NE3       30.12S
ISLAND LAKE    FLURRIES   0  -6  78 NW10      30.07R WCI -17
PILOT MOUND      N/A     19  14  79 NE9         N/A  WCI   9
THE PAS        MOSUNNY    3  -4  72 N6        30.16R WCI  -8
THOMPSON       SUNNY    -11 -18  70 NE6       30.20R WCI -25
WINNIPEG       CLOUDY    21  10  63 N13       30.11F WCI   9
LYNN LAKE      MOSUNNY   -9 -15  77 NE6       30.18R WCI -23
CHURCHILL      PTSUNNY  -11 -17  77 N8        30.30R WCI -28
GILLAM         MOSUNNY   -9 -17  70 N7        30.18R WCI -24
$$
                ***SASKATCHEWAN***

CITY           SKY/WX    TMP DP  RH WIND       PRES   REMARKS
ESTEVAN        PTSUNNY   23  19  86 NE2       30.09R
KINDERSLEY     PTSUNNY   23  19  86 W6        30.09R WCI  16
LLOYDMINSTER   FLURRIES  16  14  93 N2        30.08R
PRINCE ALBERT  FLURRIES  18  12  79 N10       30.09R WCI   6
REGINA         MOSUNNY   25  18  74 SW6       30.10R WCI  18
YORKTON        PTSUNNY   19  16  86 SW2       30.08S
N. BATTLEFORD  CLOUDY    16  12  86 NW7       30.13R WCI   6
LA RONGE       PTSUNNY    1  -2  85 VRB2      30.14R
SASKATOON      PTSUNNY   21  12  68 NW9       30.12R WCI  11
SWIFT CURRENT  CLOUDY    21  14  73 VRB2      30.08R
$$
NOTE: THESE ARE AUTOMATED STATIONS WITH LIMITED QUALITY CONTROL
      "FAIR" INDICATES FEW OR NO CLOUDS BELOW 12,000 FEET WITH NO
      SIGNIFICANT WEATHER AND/OR OBSTRUCTIONS TO VISIBILITY.
      SKY/WX - SKY CONDITION AND SIGNIFICANT WEATHER.
      TMP - AIR TEMPERATURE.    DP   - DEWPOINT TEMPERATURE.
      RH  - RELATIVE HUMIDITY.  PRES - PRESSURE.
      HX  - HEAT INDEX.         WCI  - WIND CHILL INDEX.
$




USA.gov is the U.S. government's official web portal to all federal, state and local government web resources and services.